Weather observations for the past three days for
Central Kentucky Regional Airport
| Date | Time (edt) | Wind (kph) | Vis. (km) | Weather | Sky Cond. | Temperature (ºC) | Relative Humidity | Wind Chill (°C) | Heat Index (°C) | Pressure | Precipitation (cm) | ||||||
|---|---|---|---|---|---|---|---|---|---|---|---|---|---|---|---|---|---|
| Air | Dwpt | 6 hour | altimeter (cm) | sea level (mb) | 1 hr | 3 hr | 6 hr | ||||||||||
| Max. | Min. | ||||||||||||||||
| 07 | 13:15 | N 15 G 26 | 16.09 | Fair | CLR | 15 | 0 | 36% | 76.2 | 0.0 | |||||||
| 07 | 12:55 | W 13 | 16.09 | Partly Cloudy | SCT050 | 15 | 0 | 36% | 76.2 | 0.0 | |||||||
| 07 | 12:35 | NW 15 | 16.09 | Partly Cloudy | SCT050 | 15 | 1 | 39% | 76.2 | 0.0 | |||||||
| 07 | 12:15 | NW 15 | 16.09 | Partly Cloudy | SCT050 | 15 | 1 | 39% | 76.23 | 0.0 | |||||||
| 07 | 11:55 | N 17 | 16.09 | Fair | CLR | 15 | 1 | 39% | 76.23 | 0.0 | |||||||
| 07 | 11:35 | N 11 | 16.09 | Partly Cloudy | SCT046 | 15 | 1 | 39% | 76.23 | 0.0 | |||||||
| 07 | 11:15 | NW 9 | 16.09 | Fair | CLR | 14 | 1 | 41% | 76.2 | 0.0 | |||||||
| 07 | 10:55 | NE 11 | 16.09 | Fair | CLR | 14 | 2 | 44% | 76.2 | 0.0 | |||||||
| 07 | 10:35 | NE 11 | 16.09 | Fair | CLR | 13 | 2 | 47% | 76.2 | 0.0 | |||||||
| 07 | 10:15 | NE 11 | 16.09 | Fair | CLR | 12 | 2 | 51% | 76.2 | 0.0 | |||||||
| 07 | 09:55 | N 13 | 16.09 | Fair | CLR | 12 | 2 | 51% | 76.2 | 0.0 | |||||||
| 07 | 09:35 | N 15 | 16.09 | Fair | CLR | 12 | 2 | 51% | 76.2 | 0.0 | |||||||
| 07 | 09:15 | N 11 | 16.09 | Fair | CLR | 11 | 2 | 54% | 76.2 | 0.0 | |||||||
| 07 | 08:55 | N 13 | 16.09 | Fair | CLR | 11 | 2 | 54% | 76.23 | 0.0 | |||||||
| 07 | 08:35 | N 19 | 16.09 | Fair | CLR | 10 | 3 | 62% | 8 | 76.23 | 0.0 | ||||||
| 07 | 08:15 | N 9 | 16.09 | Fair | CLR | 9 | 4 | 71% | 8 | 76.23 | 0.0 | ||||||
| 07 | 07:55 | Calm | 16.09 | Fair | CLR | 8 | 5 | 82% | 76.2 | 0.0 | |||||||
| 07 | 07:35 | N 6 | 16.09 | Fair | CLR | 8 | 5 | 82% | 76.2 | 0.0 | |||||||
| 07 | 07:15 | N 7 | 16.09 | Fair | CLR | 7 | 5 | 87% | 6 | 76.17 | 0.0 | ||||||
| 07 | 06:55 | N 6 | 16.09 | Partly Cloudy | SCT048 SCT120 | 8 | 5 | 82% | 76.15 | 0.0 | |||||||
| 07 | 06:35 | N 6 | 16.09 | Overcast | BKN048 OVC120 | 8 | 5 | 82% | 76.15 | 0.0 | |||||||
| 07 | 06:15 | N 6 | 16.09 | Overcast | OVC048 | 8 | 5 | 82% | 76.15 | 0.0 | |||||||
| 07 | 05:55 | N 7 | 16.09 | Overcast | OVC048 | 8 | 6 | 87% | 7 | 76.15 | 0.0 | ||||||
| 07 | 05:35 | NW 7 | 16.09 | Overcast | OVC048 | 8 | 6 | 87% | 7 | 76.15 | 0.0 | ||||||
| 07 | 05:15 | N 7 | 16.09 | Overcast | OVC048 | 9 | 6 | 82% | 8 | 76.12 | 0.0 | ||||||
| 07 | 04:55 | NW 6 | 16.09 | Overcast | OVC048 | 9 | 6 | 82% | 76.15 | 0.0 | |||||||
| 07 | 04:35 | NW 6 | 16.09 | Overcast | OVC048 | 9 | 6 | 82% | 76.12 | 0.0 | |||||||
| 07 | 04:15 | NW 6 | 16.09 | Mostly Cloudy | BKN046 | 9 | 6 | 82% | 76.12 | 0.0 | |||||||
| 07 | 03:55 | N 6 | 16.09 | Partly Cloudy | SCT046 | 10 | 5 | 71% | 76.12 | 0.0 | |||||||
| 07 | 03:15 | N 7 | 16.09 | Partly Cloudy | SCT044 | 10 | 6 | 76% | 9 | 76.1 | 0.0 | ||||||
| 07 | 02:55 | Calm | 16.09 | Overcast | OVC044 | 11 | 5 | 67% | 76.1 | 0.0 | |||||||
| 07 | 02:35 | Calm | 16.09 | Overcast | OVC044 | 11 | 5 | 67% | 76.12 | 0.0 | |||||||
| 07 | 02:15 | N 6 | 16.09 | Overcast | BKN044 OVC050 | 11 | 5 | 67% | 76.15 | 0.0 | |||||||
| 07 | 01:55 | Calm | 16.09 | Overcast | BKN044 OVC050 | 11 | 5 | 67% | 76.15 | 0.0 | |||||||
| 07 | 01:35 | Calm | 16.09 | Overcast | OVC044 | 11 | 5 | 67% | 76.15 | 0.0 | |||||||
| 07 | 01:15 | N 6 | 16.09 | Overcast | OVC042 | 11 | 5 | 67% | 76.15 | 0.0 | |||||||
| 07 | 00:55 | Calm | 16.09 | Overcast | OVC042 | 11 | 6 | 72% | 76.15 | 0.0 | |||||||
| 07 | 00:35 | N 6 | 16.09 | Overcast | OVC042 | 11 | 6 | 72% | 76.15 | 0.0 | |||||||
| 07 | 00:15 | N 7 | 16.09 | Overcast | OVC040 | 12 | 6 | 67% | 76.15 | 0.0 | |||||||
| 06 | 23:55 | N 7 | 16.09 | Overcast | OVC040 | 12 | 7 | 72% | 76.15 | 0.0 | |||||||
| 06 | 23:35 | NW 7 | 16.09 | Overcast | OVC040 | 12 | 7 | 72% | 76.17 | 0.0 | |||||||
| 06 | 23:15 | NW 6 | 16.09 | Overcast | OVC038 | 12 | 8 | 77% | 76.17 | 0.0 | |||||||
| 06 | 22:55 | Calm | 16.09 | Overcast | OVC036 | 12 | 8 | 77% | 76.15 | 0.0 | |||||||
| 06 | 22:35 | NW 6 | 16.09 | Overcast | OVC036 | 12 | 8 | 77% | 76.15 | 0.0 | |||||||
| 06 | 22:15 | Calm | 16.09 | Overcast | OVC036 | 12 | 8 | 77% | 76.1 | 0.0 | |||||||
| 06 | 21:55 | N 6 | 16.09 | Overcast | OVC040 | 12 | 9 | 82% | 76.07 | 0.0 | |||||||
| 06 | 21:35 | Calm | 16.09 | Overcast | OVC038 | 12 | 11 | 94% | 76.07 | 0.0 | |||||||
| 06 | 21:15 | Calm | 16.09 | Overcast | BKN036 OVC042 | 13 | 12 | 94% | 76.1 | 0.0 | |||||||
| 06 | 20:55 | SW 6 | 16.09 | Overcast | OVC040 | 13 | 11 | 88% | 76.15 | 0.0 | |||||||
| 06 | 20:35 | Calm | 16.09 | Overcast | OVC038 | 13 | 11 | 88% | 76.1 | 0.0 | |||||||
| 06 | 20:15 | Calm | 16.09 | Overcast | OVC036 | 13 | 11 | 88% | 76.05 | 0.0 | |||||||
| 06 | 19:55 | SW 6 | 16.09 | Overcast | OVC034 | 13 | 11 | 88% | 76.07 | 0.0 | |||||||
| 06 | 19:35 | Calm | 16.09 | Overcast | OVC032 | 13 | 11 | 88% | 76.02 | 0.0 | |||||||
| 06 | 19:15 | SW 9 | 16.09 | Overcast | OVC032 | 13 | 11 | 88% | 76.07 | 0.0 | |||||||
| 06 | 18:55 | Calm | 16.09 | Overcast | OVC032 | 13 | 11 | 88% | 76 | 0.0 | |||||||
| 06 | 18:35 | W 6 | 16.09 | Overcast | OVC028 | 14 | 10 | 77% | 76.05 | 0.0 | |||||||
| 06 | 18:15 | S 6 | 16.09 | Overcast | OVC028 | 14 | 10 | 77% | 75.97 | 0.0 | |||||||
| 06 | 17:55 | Calm | 16.09 | Overcast | SCT028 BKN037 OVC049 | 14 | 10 | 77% | 76 | 0.0 | |||||||
| 06 | 17:35 | SW 6 | 16.09 | Overcast | SCT028 OVC037 | 14 | 10 | 77% | 76.02 | 0.0 | |||||||
| 06 | 17:15 | Calm | 16.09 | Overcast | SCT024 BKN028 OVC037 | 14 | 10 | 77% | 76 | 0.0 | |||||||
| 06 | 16:55 | SW 7 | 16.09 | Overcast | OVC024 | 14 | 10 | 77% | 76 | 0.0 | |||||||
| 06 | 16:35 | W 6 | 16.09 | Overcast | BKN024 BKN029 OVC035 | 14 | 10 | 77% | 76.02 | 0.0 | |||||||
| 06 | 16:15 | SW 6 | 16.09 | Overcast | OVC020 | 14 | 10 | 77% | 76.02 | 0.0 | |||||||
| 06 | 15:55 | Calm | 16.09 | Overcast | BKN018 OVC025 | 14 | 10 | 77% | 76.05 | 0.0 | |||||||
| 06 | 15:35 | Calm | 16.09 | Overcast | BKN020 OVC025 | 14 | 10 | 77% | 76.05 | 0.0 | |||||||
| 06 | 15:15 | W 6 | 16.09 | Overcast | OVC022 | 14 | 10 | 77% | 76.02 | 0.0 | |||||||
| 06 | 14:55 | W 6 | 16.09 | Overcast | SCT015 OVC022 | 14 | 10 | 77% | 76.05 | 0.0 | |||||||
| 06 | 14:35 | W 6 | 16.09 | Overcast | SCT015 OVC022 | 13 | 10 | 82% | 76.02 | 0.0 | |||||||
| 06 | 14:15 | W 6 | 16.09 | Overcast | OVC015 | 12 | 10 | 88% | 76.02 | 0.0 | |||||||
| 06 | 13:55 | Calm | 16.09 | Overcast | BKN011 BKN017 OVC033 | 12 | 10 | 88% | 76.02 | 0.0 | |||||||
| 06 | 13:35 | W 6 | 16.09 | Overcast | OVC009 | 11 | 10 | 94% | 76.02 | 0.0 | |||||||
| 06 | 13:15 | NW 6 | 16.09 | Overcast | OVC007 | 11 | 10 | 94% | 76.02 | 0.0 | |||||||
| 06 | 12:55 | Calm | 16.09 | Overcast | OVC005 | 11 | 10 | 94% | 76.02 | 0.0 | |||||||
| 06 | 12:35 | NW 6 | 16.09 | Overcast | OVC003 | 10 | 10 | 100% | 76.02 | 0.0 | |||||||
| 06 | 12:15 | NW 9 | 11.27 | Overcast | OVC003 | 10 | 9 | 94% | 9 | 76.02 | 0.0 | ||||||
| 06 | 11:55 | N 7 | 11.27 | Overcast | OVC003 | 10 | 9 | 94% | 9 | 76.02 | 0.0 | ||||||
| 06 | 11:15 | NW 9 | 4.83 | Fog/Mist | OVC003 | 10 | 9 | 94% | 9 | 76 | 0.0 | ||||||
| 06 | 10:55 | NW 6 | 3.22 | Fog/Mist | OVC003 | 10 | 9 | 94% | 75.97 | 0.0 | |||||||
| 06 | 10:35 | NW 11 | 16.09 | Overcast | OVC003 | 10 | 9 | 94% | 9 | 75.97 | 0.0 | ||||||
| 06 | 10:15 | N 7 | 11.27 | Overcast | OVC003 | 10 | 9 | 94% | 9 | 75.95 | 0.0 | ||||||
| 06 | 09:55 | N 6 | 6.44 | Fog/Mist | OVC003 | 10 | 9 | 94% | 75.95 | 0.0 | |||||||
| 06 | 09:35 | N 7 | 4.02 | Fog/Mist | OVC003 | 10 | 9 | 94% | 9 | 75.92 | 0.0 | ||||||
| 06 | 09:15 | N 9 | 2.82 | Fog/Mist | OVC003 | 10 | 9 | 94% | 9 | 75.9 | 0.0 | ||||||
| 06 | 08:55 | NW 15 | 2.41 | Fog/Mist | OVC003 | 10 | 10 | 100% | 8 | 75.87 | 0.0 | ||||||
| 06 | 08:35 | N 15 | 4.02 | Fog/Mist | OVC003 | 11 | 11 | 100% | 75.87 | 0.0 | |||||||
| 06 | 08:15 | NW 15 | 0.80 | Fog | OVC003 | 12 | 12 | 100% | 75.82 | 0.0 | |||||||
| 06 | 07:55 | NW 15 | 16.09 | Overcast | OVC003 | 13 | 13 | 100% | 75.74 | 0.0 | |||||||
| 06 | 07:35 | W 9 | 16.09 | Overcast | OVC007 | 13 | 13 | 100% | 75.74 | 0.0 | |||||||
| 06 | 07:15 | W 17 | 16.09 | Overcast | BKN005 OVC010 | 15 | 14 | 94% | 75.72 | 0.0 | |||||||
| 06 | 06:55 | W 7 | 11.27 | Overcast | SCT005 OVC010 | 15 | 14 | 94% | 75.67 | 0.0 | 0.1 | ||||||
| 06 | 06:35 | W 7 | 11.27 | Light Rain | BKN010 OVC013 | 15 | 15 | 100% | 75.64 | 0.0 | 0.08 | ||||||
| 06 | 06:15 | SW 11 | 11.27 | Rain | BKN007 OVC013 | 15 | 15 | 100% | 75.64 | 0.0 | 0.03 | ||||||
| 06 | 05:55 | SW 9 | 16.09 | Light Rain | BKN007 BKN020 BKN027 | 15 | 15 | 100% | 75.64 | 0.0 | 0.48 | ||||||
| 06 | 05:35 | SW 6 | 11.27 | Light Rain | SCT013 BKN021 BKN027 | 15 | 14 | 94% | 75.62 | 0.0 | 0.46 | ||||||
| 06 | 05:15 | W 13 | 11.27 | Heavy Rain | BKN021 BKN027 OVC033 | 15 | 14 | 94% | 75.64 | 0.0 | 0.18 | ||||||
| 06 | 04:55 | W 9 | 16.09 | Overcast | OVC033 | 15 | 14 | 94% | 75.59 | 0.0 | |||||||
| 06 | 04:35 | NW 13 | 16.09 | Overcast | OVC035 | 15 | 14 | 94% | 75.57 | 0.0 | |||||||
| 06 | 04:15 | S 19 G 26 | 16.09 | Overcast | OVC035 | 15 | 14 | 94% | 75.51 | 0.0 | |||||||
| 06 | 03:55 | S 17 | 16.09 | Light Rain | BKN035 OVC040 | 15 | 14 | 94% | 75.51 | 0.0 | 0.13 | ||||||
| 06 | 03:35 | SW 17 G 28 | 11.27 | Rain | BKN036 OVC042 | 15 | 13 | 88% | 75.54 | 0.0 | 0.1 | ||||||
| 06 | 03:15 | S 15 | 16.09 | Light Drizzle | OVC039 | 15 | 13 | 88% | 75.51 | 0.0 | |||||||
| 06 | 02:55 | S 17 G 26 | 16.09 | Overcast | BKN041 OVC049 | 15 | 13 | 88% | 75.49 | 0.0 | 0.03 | ||||||
| 06 | 02:35 | S 20 G 31 | 11.27 | Light Rain | BKN041 BKN055 | 15 | 12 | 82% | 75.51 | 0.0 | 0.03 | ||||||
| 06 | 02:15 | S 19 G 30 | 16.09 | Light Rain | SCT040 BKN045 BKN055 | 15 | 12 | 82% | 75.57 | 0.0 | |||||||
| 06 | 01:55 | S 19 G 30 | 16.09 | Overcast | OVC042 | 15 | 11 | 77% | 75.57 | 0.0 | |||||||
| 06 | 01:15 | S 20 G 39 | 16.09 | Light Rain | OVC040 | 16 | 11 | 72% | 75.62 | 0.0 | |||||||
| 06 | 00:55 | S 26 G 31 | 16.09 | Overcast | OVC040 | 16 | 11 | 72% | 75.62 | 0.0 | |||||||
| 06 | 00:35 | S 20 G 41 | 16.09 | Overcast | OVC042 | 16 | 11 | 72% | 75.62 | 0.0 | |||||||
| 06 | 00:15 | S 22 G 31 | 16.09 | Overcast | OVC042 | 16 | 11 | 72% | 75.64 | 0.0 | |||||||
| 05 | 23:55 | S 19 G 28 | 16.09 | Overcast | OVC042 | 15 | 11 | 77% | 75.67 | 0.0 | |||||||
| 05 | 23:35 | S 20 G 35 | 16.09 | Light Rain | BKN044 BKN050 OVC060 | 16 | 11 | 72% | 75.69 | 0.0 | |||||||
| 05 | 23:15 | S 37 G 46 | 16.09 | Light Rain and Breezy | SCT047 BKN060 OVC080 | 18 | 10 | 60% | 75.72 | 0.0 | |||||||
| 05 | 22:55 | SW 39 G 57 | 16.09 | Light Rain and Breezy | SCT049 BKN055 BKN070 | 19 | 8 | 49% | 75.74 | 0.0 | |||||||
| 05 | 22:35 | SW 22 G 31 | 16.09 | Overcast | BKN065 BKN085 OVC110 | 20 | 7 | 43% | 75.72 | 0.0 | |||||||
| 05 | 22:15 | SW 20 G 33 | 16.09 | Overcast | OVC065 | 20 | 8 | 46% | 75.69 | 0.0 | |||||||
| 05 | 21:55 | S 15 | 16.09 | Overcast | BKN070 OVC080 | 19 | 8 | 49% | 75.67 | 0.0 | |||||||
| 05 | 21:35 | S 9 | 16.09 | Overcast | BKN070 OVC090 | 19 | 9 | 52% | 75.64 | 0.0 | |||||||
| 05 | 21:15 | S 7 | 16.09 | Mostly Cloudy | SCT070 BKN090 | 19 | 9 | 52% | 75.64 | 0.0 | |||||||
| 05 | 20:55 | SW 9 | 16.09 | Mostly Cloudy | SCT070 SCT090 BKN110 | 20 | 9 | 49% | 75.67 | 0.0 | |||||||
| 05 | 20:35 | S 13 | 16.09 | Partly Cloudy | SCT110 | 20 | 8 | 46% | 75.62 | 0.0 | |||||||
| 05 | 20:15 | S 13 | 16.09 | Fair | CLR | 20 | 8 | 46% | 75.62 | 0.0 | |||||||
| 05 | 19:55 | S 11 | 16.09 | Partly Cloudy | SCT090 | 20 | 9 | 49% | 75.64 | 0.0 | |||||||
| 05 | 19:35 | S 15 | 16.09 | Partly Cloudy | SCT090 | 20 | 10 | 53% | 75.69 | 0.0 | |||||||
| 05 | 19:15 | S 9 | 16.09 | Fair | CLR | 21 | 10 | 50% | 75.67 | 0.0 | |||||||
| 05 | 18:55 | S 7 | 16.09 | Partly Cloudy | SCT095 | 21 | 10 | 50% | 75.69 | 0.0 | |||||||
| 05 | 18:35 | S 7 | 16.09 | Partly Cloudy | SCT070 | 21 | 10 | 50% | 75.72 | 0.0 | |||||||
| 05 | 18:15 | S 7 | 16.09 | Mostly Cloudy | BKN070 | 21 | 10 | 50% | 75.72 | 0.0 | |||||||
| 05 | 17:55 | SW 7 | 16.09 | Overcast | OVC080 | 21 | 9 | 46% | 75.74 | 0.0 | |||||||
| 05 | 17:35 | SW 11 | 16.09 | Overcast | OVC090 | 20 | 9 | 49% | 75.77 | 0.0 | |||||||
| 05 | 17:15 | SW 13 | 16.09 | Mostly Cloudy | BKN090 | 21 | 8 | 43% | 75.77 | 0.0 | |||||||
| 05 | 16:55 | S 19 | 16.09 | Partly Cloudy | SCT100 | 21 | 8 | 43% | 75.77 | 0.0 | |||||||
| 05 | 16:35 | SW 13 | 16.09 | Fair | CLR | 21 | 8 | 43% | 75.79 | 0.0 | |||||||
| 05 | 16:15 | SW 19 | 16.09 | Fair | CLR | 21 | 8 | 43% | 75.82 | 0.0 | |||||||
| 05 | 15:35 | SW 17 G 31 | 16.09 | Fair | CLR | 22 | 8 | 41% | 75.87 | 0.0 | |||||||
| 05 | 15:15 | SW 22 G 35 | 16.09 | Partly Cloudy | SCT050 | 22 | 8 | 41% | 75.9 | 0.0 | |||||||
| 05 | 14:55 | SW 30 G 37 | 16.09 | Partly Cloudy | SCT050 | 22 | 8 | 41% | 75.9 | 0.0 | |||||||
| 05 | 14:35 | SW 28 G 43 | 16.09 | Partly Cloudy | SCT050 | 22 | 8 | 41% | 75.92 | 0.0 | |||||||
| 05 | 14:15 | SW 19 G 41 | 16.09 | Partly Cloudy | SCT050 SCT060 | 22 | 8 | 41% | 75.92 | 0.0 | |||||||
| 05 | 13:55 | SW 26 G 48 | 16.09 | Partly Cloudy | SCT050 | 21 | 8 | 43% | 75.95 | 0.0 | |||||||
| 05 | 13:35 | SW 22 G 39 | 16.09 | Partly Cloudy | SCT050 SCT060 | 22 | 8 | 41% | 75.95 | 0.0 | |||||||
| 05 | 13:15 | SW 20 G 35 | 16.09 | Fair | CLR | 21 | 9 | 46% | 75.97 | 0.0 | |||||||
| 05 | 12:55 | SW 26 G 37 | 16.09 | Partly Cloudy | SCT060 | 21 | 9 | 46% | 76 | 0.0 | |||||||
| 05 | 12:35 | SW 22 G 37 | 16.09 | Fair | CLR | 21 | 9 | 46% | 76 | 0.0 | |||||||
| 05 | 12:15 | SW 22 G 37 | 16.09 | Fair | CLR | 21 | 8 | 43% | 76 | 0.0 | |||||||
| 05 | 11:55 | SW 22 G 43 | 16.09 | Mostly Cloudy | BKN070 | 22 | 8 | 41% | 76 | 0.0 | |||||||
| 05 | 11:35 | S 19 G 28 | 16.09 | Partly Cloudy | SCT070 | 21 | 8 | 43% | 75.97 | 0.0 | |||||||
| 05 | 11:15 | SW 22 G 33 | 16.09 | Fair | CLR | 20 | 8 | 46% | 75.97 | 0.0 | |||||||
| 05 | 10:55 | S 20 | 16.09 | Fair | CLR | 20 | 8 | 46% | 75.97 | 0.0 | |||||||
| 05 | 10:35 | S 20 G 30 | 16.09 | Fair | CLR | 20 | 8 | 46% | 75.97 | 0.0 | |||||||
| 05 | 10:15 | SW 22 | 16.09 | Fair | CLR | 20 | 7 | 43% | 75.97 | 0.0 | |||||||
| 05 | 09:55 | S 24 G 30 | 16.09 | Fair | CLR | 19 | 7 | 46% | 76 | 0.0 | |||||||
| 05 | 09:35 | S 17 | 16.09 | Fair | CLR | 18 | 7 | 49% | 75.97 | 0.0 | |||||||
| 05 | 09:15 | SW 15 | 16.09 | Partly Cloudy | SCT060 | 18 | 7 | 49% | 76 | 0.0 | |||||||
| 05 | 08:55 | SW 19 | 16.09 | Partly Cloudy | SCT060 | 18 | 7 | 49% | 76 | 0.0 | |||||||
| 05 | 08:35 | S 19 | 16.09 | Partly Cloudy | SCT060 | 17 | 7 | 52% | 75.97 | 0.0 | |||||||
| 05 | 08:15 | S 17 | 16.09 | Partly Cloudy | SCT060 | 17 | 7 | 52% | 75.97 | 0.0 | |||||||
| 05 | 07:55 | S 17 | 16.09 | Mostly Cloudy | BKN060 | 17 | 7 | 52% | 75.97 | 0.0 | |||||||
| 05 | 07:35 | S 17 | 16.09 | Mostly Cloudy | BKN060 | 16 | 7 | 55% | 75.97 | 0.0 | |||||||
| 05 | 07:15 | S 17 | 16.09 | Mostly Cloudy | BKN060 | 16 | 7 | 55% | 75.95 | 0.0 | |||||||
| 05 | 06:55 | S 17 | 16.09 | Mostly Cloudy | BKN060 | 16 | 6 | 52% | 75.92 | 0.0 | |||||||
| 05 | 06:35 | S 19 | 16.09 | Partly Cloudy | SCT060 | 16 | 6 | 52% | 75.9 | 0.0 | |||||||
| 05 | 06:15 | S 15 | 16.09 | Fair | CLR | 16 | 6 | 52% | 75.87 | 0.0 | |||||||
| 05 | 05:55 | SW 17 | 16.09 | Fair | CLR | 16 | 6 | 52% | 75.87 | 0.0 | |||||||
| 05 | 05:35 | S 19 | 16.09 | Fair | CLR | 16 | 6 | 52% | 75.84 | 0.0 | |||||||
| 05 | 05:15 | SW 15 | 16.09 | Fair | CLR | 16 | 6 | 52% | 75.84 | 0.0 | |||||||
| 05 | 04:55 | S 19 G 28 | 16.09 | Fair | CLR | 16 | 6 | 52% | 75.84 | 0.0 | |||||||
| 05 | 04:35 | S 20 | 16.09 | Fair | CLR | 16 | 6 | 52% | 75.84 | 0.0 | |||||||
| 05 | 04:15 | S 17 | 16.09 | Fair | CLR | 16 | 6 | 52% | 75.84 | 0.0 | |||||||
| 05 | 03:55 | S 15 | 16.09 | Fair | CLR | 16 | 7 | 55% | 75.84 | 0.0 | |||||||
| 05 | 03:35 | S 15 | 16.09 | Fair | CLR | 16 | 7 | 55% | 75.84 | 0.0 | |||||||
| 05 | 03:15 | S 15 | 16.09 | Fair | CLR | 17 | 7 | 52% | 75.84 | 0.0 | |||||||
| 05 | 02:55 | S 19 | 16.09 | Fair | CLR | 17 | 7 | 52% | 75.82 | 0.0 | |||||||
| 05 | 02:35 | S 19 | 16.09 | Fair | CLR | 17 | 7 | 52% | 75.82 | 0.0 | |||||||
| 05 | 02:15 | SW 17 | 16.09 | Fair | CLR | 18 | 7 | 49% | 75.84 | 0.0 | |||||||
| 05 | 01:55 | SW 17 | 16.09 | Fair | CLR | 18 | 7 | 49% | 75.87 | 0.0 | |||||||
| 05 | 01:35 | SW 17 G 26 | 16.09 | Fair | CLR | 18 | 7 | 49% | 75.87 | 0.0 | |||||||
| 05 | 01:15 | SW 17 | 16.09 | Fair | CLR | 18 | 7 | 49% | 75.87 | 0.0 | |||||||
| 05 | 00:55 | SW 13 | 16.09 | Fair | CLR | 18 | 7 | 49% | 75.87 | 0.0 | |||||||
| 05 | 00:35 | SW 13 | 16.09 | Fair | CLR | 18 | 7 | 49% | 75.84 | 0.0 | |||||||
| 05 | 00:15 | SW 15 | 16.09 | Fair | CLR | 19 | 7 | 46% | 75.82 | 0.0 | |||||||
| 04 | 23:55 | SW 17 | 16.09 | Fair | CLR | 20 | 7 | 43% | 75.79 | 0.0 | |||||||
| 04 | 23:35 | SW 17 | 16.09 | Fair | CLR | 21 | 7 | 40% | 75.79 | 0.0 | |||||||
| 04 | 23:15 | SW 24 G 35 | 16.09 | Fair | CLR | 21 | 7 | 40% | 75.77 | 0.0 | |||||||
| 04 | 22:55 | SW 28 G 35 | 16.09 | Fair | CLR | 21 | 7 | 40% | 75.74 | 0.0 | |||||||
| 04 | 22:35 | S 28 G 35 | 16.09 | Fair | CLR | 21 | 7 | 40% | 75.72 | 0.0 | |||||||
| 04 | 22:15 | S 19 G 35 | 16.09 | Fair | CLR | 21 | 7 | 40% | 75.72 | 0.0 | |||||||
| 04 | 21:55 | S 20 | 16.09 | Fair | CLR | 21 | 7 | 40% | 75.72 | 0.0 | |||||||
| 04 | 21:35 | S 19 | 16.09 | Fair | CLR | 21 | 7 | 40% | 75.72 | 0.0 | |||||||
| 04 | 21:15 | S 17 | 16.09 | Fair | CLR | 21 | 7 | 40% | 75.72 | 0.0 | |||||||
| 04 | 20:55 | S 15 | 16.09 | Fair | CLR | 21 | 7 | 40% | 75.72 | 0.0 | |||||||
| 04 | 20:35 | S 13 | 16.09 | Fair | CLR | 21 | 7 | 40% | 75.72 | 0.0 | |||||||
| 04 | 20:15 | S 11 | 16.09 | Fair | CLR | 22 | 7 | 38% | 75.72 | 0.0 | |||||||
| 04 | 19:55 | SW 17 | 16.09 | Partly Cloudy | SCT070 SCT080 | 22 | 6 | 36% | 75.74 | 0.0 | |||||||
| 04 | 19:35 | SW 15 | 16.09 | Fair | CLR | 23 | 6 | 33% | 75.77 | 0.0 | |||||||
| 04 | 19:15 | SW 22 G 31 | 16.09 | Fair | CLR | 24 | 7 | 34% | 25 | 75.79 | 0.0 | ||||||
| 04 | 18:55 | SW 15 | 16.09 | Fair | CLR | 25 | 8 | 34% | 26 | 75.77 | 0.0 | ||||||
| 04 | 18:35 | SW 19 G 26 | 16.09 | Fair | CLR | 25 | 7 | 32% | 25 | 75.79 | 0.0 | ||||||
| 04 | 18:15 | SW 19 G 30 | 16.09 | Fair | CLR | 25 | 7 | 32% | 25 | 75.79 | 0.0 | ||||||
| 04 | 17:55 | SW 22 G 33 | 16.09 | Partly Cloudy | SCT070 | 25 | 7 | 32% | 25 | 75.79 | 0.0 | ||||||
| 04 | 17:35 | SW 20 G 28 | 16.09 | Partly Cloudy | SCT070 | 25 | 7 | 32% | 25 | 75.79 | 0.0 | ||||||
| 04 | 17:15 | W 24 G 37 | 16.09 | Fair | CLR | 26 | 7 | 30% | 26 | 75.79 | 0.0 | ||||||
| 04 | 16:55 | SW 19 G 28 | 16.09 | Partly Cloudy | SCT065 | 25 | 7 | 32% | 25 | 75.79 | 0.0 | ||||||
| 04 | 16:35 | SW 19 G 28 | 16.09 | Partly Cloudy | SCT065 | 25 | 7 | 32% | 25 | 75.79 | 0.0 | ||||||
| 04 | 16:15 | SW 19 | 16.09 | Fair | CLR | 25 | 7 | 32% | 25 | 75.82 | 0.0 | ||||||
| 04 | 15:55 | SW 19 G 26 | 16.09 | Fair | CLR | 25 | 8 | 34% | 26 | 75.87 | 0.0 | ||||||
| 04 | 15:35 | SW 24 G 31 | 16.09 | Fair | CLR | 25 | 8 | 34% | 26 | 75.9 | 0.0 | ||||||
| 04 | 15:15 | SW 22 G 31 | 16.09 | Fair | CLR | 25 | 8 | 34% | 26 | 75.9 | 0.0 | ||||||
| 04 | 14:55 | SW 26 G 33 | 16.09 | Fair | CLR | 24 | 8 | 36% | 25 | 75.9 | 0.0 | ||||||
| 04 | 14:35 | SW 24 G 33 | 16.09 | Fair | CLR | 23 | 8 | 38% | 75.9 | 0.0 | |||||||
| 04 | 14:15 | SW 24 G 37 | 16.09 | Fair | CLR | 23 | 8 | 38% | 75.92 | 0.0 | |||||||
| 04 | 13:55 | S 26 G 31 | 16.09 | Fair | CLR | 22 | 8 | 41% | 75.92 | 0.0 | |||||||
| 04 | 13:35 | S 30 G 35 | 16.09 | Fair | CLR | 22 | 8 | 41% | 75.92 | 0.0 | |||||||
| Date | Time (edt) | Wind (kph) | Vis. (km) | Weather | Sky Cond. | Air | Dwpt | Max. | Min. | Relative Humidity | Wind Chill (°C) | Heat Index (°C) | altimeter (cm) | sea level (mb) | 1 hr | 3 hr | 6 hr |
| 6 hour | |||||||||||||||||
| Temperature (ºC) | Pressure | Precipitation (cm) | |||||||||||||||